Data No.,UTC Date,UTC Time,Latitude,Longitude,Course(deg),Temp(degC),Sal(psu)
24456,2011/10/7,11:16:00,20-31.9600N,107-30.0300E,91,27.067,31.2613
24457,2011/10/7,11:17:00,20-31.9400N,107-30.2200E,97,27.08,31.2857
24458,2011/10/7,11:18:00,20-31.9100N,107-30.4100E,99,27.079,31.3057
24459,2011/10/7,11:19:00,20-31.8900N,107-30.6000E,92,27.074,31.3209
24460,2011/10/7,11:20:00,20-31.8900N,107-30.7800E,94,27.071,31.3404
24461,2011/10/7,11:21:00,20-31.8600N,107-30.9700E,98,27.048,31.3513
24462,2011/10/7,11:22:00,20-31.8400N,107-31.1600E,98,27.037,31.3538
24463,2011/10/7,11:23:00,20-31.8100N,107-31.3500E,99,27.017,31.3516
24464,2011/10/7,11:24:00,20-31.8000N,107-31.5400E,91,26.993,31.355
24465,2011/10/7,11:25:00,20-31.7800N,107-31.7300E,98,26.97,31.3473
24466,2011/10/7,11:26:00,20-31.7600N,107-31.9200E,96,26.956,31.3406
24467,2011/10/7,11:27:00,20-31.7300N,107-32.1000E,97,26.95,31.3252
24468,2011/10/7,11:28:00,20-31.7100N,107-32.3000E,96,26.938,31.3108
24469,2011/10/7,11:29:00,20-31.7000N,107-32.4800E,93,26.93,31.3026
24470,2011/10/7,11:30:00,20-31.6800N,107-32.6700E,98,26.926,31.2991
24471,2011/10/7,11:31:00,20-31.6500N,107-32.8600E,101,26.922,31.3039
24472,2011/10/7,11:32:00,20-31.6100N,107-33.0500E,97,26.916,31.3143
24473,2011/10/7,11:33:00,20-31.6000N,107-33.2400E,92,26.913,31.3175
24474,2011/10/7,11:34:00,20-31.5800N,107-33.4300E,98,26.909,31.3134
24475,2011/10/7,11:35:00,20-31.5500N,107-33.6200E,102,26.906,31.309
24476,2011/10/7,11:36:00,20-31.5300N,107-33.8100E,95,26.901,31.3065
24477,2011/10/7,11:37:00,20-31.5100N,107-33.9900E,97,26.887,31.3074
24478,2011/10/7,11:38:00,20-31.4800N,107-34.1800E,100,26.865,31.3103
24479,2011/10/7,11:39:00,20-31.4500N,107-34.3700E,100,26.858,31.3175
24480,2011/10/7,11:40:00,20-31.4300N,107-34.5500E,94,26.88,31.3353
24481,2011/10/7,11:41:00,20-31.4100N,107-34.7400E,97,26.874,31.3828
24482,2011/10/7,11:42:00,20-31.3800N,107-34.9300E,100,26.87,31.4295
24483,2011/10/7,11:43:00,20-31.3500N,107-35.1200E,99,26.862,31.4689
24484,2011/10/7,11:44:00,20-31.3400N,107-35.3000E,94,26.854,31.5065
24485,2011/10/7,11:45:00,20-31.3100N,107-35.4800E,98,26.832,31.5432
24486,2011/10/7,11:46:00,20-31.2800N,107-35.6700E,102,26.815,31.6001
24487,2011/10/7,11:47:00,20-31.2500N,107-35.8600E,98,26.806,31.6249
24488,2011/10/7,11:48:00,20-31.2300N,107-36.0400E,96,26.792,31.6425
24489,2011/10/7,11:49:00,20-31.2100N,107-36.2300E,93,26.764,31.6528
24490,2011/10/7,11:50:00,20-31.2000N,107-36.4200E,96,26.72,31.6671
24491,2011/10/7,11:51:00,20-31.1800N,107-36.6000E,92,26.666,31.6835
24492,2011/10/7,11:52:00,20-31.1800N,107-36.7900E,91,26.61,31.7044
24493,2011/10/7,11:53:00,20-31.1800N,107-36.9700E,90,26.601,31.7335
24494,2011/10/7,11:54:00,20-31.1700N,107-37.1600E,91,26.602,31.7747
24495,2011/10/7,11:55:00,20-31.1700N,107-37.3400E,91,26.608,31.8062
24496,2011/10/7,11:56:00,20-31.1600N,107-37.5200E,92,26.611,31.8703
24497,2011/10/7,11:57:00,20-31.1600N,107-37.7100E,90,26.616,31.9169
24498,2011/10/7,11:58:00,20-31.1500N,107-37.8900E,95,26.617,31.9334
24499,2011/10/7,11:59:00,20-31.1300N,107-38.0700E,94,26.616,31.9439
24500,2011/10/7,12:00:00,20-31.1200N,107-38.2500E,97,26.608,31.9561
24501,2011/10/7,12:01:00,20-31.1000N,107-38.4400E,96,26.593,31.9754
24502,2011/10/7,12:02:00,20-31.0800N,107-38.6200E,93,26.573,31.9988
24503,2011/10/7,12:03:00,20-31.0700N,107-38.8100E,94,26.54,32.0207
24504,2011/10/7,12:04:00,20-31.0500N,107-38.9900E,94,26.483,32.0607
24505,2011/10/7,12:05:00,20-31.0500N,107-39.1700E,92,26.429,32.116
24506,2011/10/7,12:06:00,20-31.0400N,107-39.3600E,93,26.393,32.1981
24507,2011/10/7,12:07:00,20-31.0200N,107-39.5400E,95,26.369,32.2671
24508,2011/10/7,12:08:00,20-31.0100N,107-39.7200E,95,26.356,32.3275
24509,2011/10/7,12:09:00,20-30.9800N,107-39.9100E,99,26.345,32.3674
24510,2011/10/7,12:10:00,20-30.9600N,107-40.0900E,92,26.339,32.3848
24511,2011/10/7,12:11:00,20-30.9600N,107-40.2800E,94,26.334,32.3891
24512,2011/10/7,12:12:00,20-30.9300N,107-40.4600E,101,26.321,32.3876
24513,2011/10/7,12:13:00,20-30.9000N,107-40.6500E,94,26.305,32.3861
24514,2011/10/7,12:14:00,20-30.9000N,107-40.8300E,94,26.299,32.387
24515,2011/10/7,12:15:00,20-30.8700N,107-41.0100E,98,26.295,32.3911
24516,2011/10/7,12:16:00,20-30.8400N,107-41.2000E,100,26.295,32.3947
24517,2011/10/7,12:17:00,20-30.8200N,107-41.3800E,95,26.282,32.3993
24518,2011/10/7,12:18:00,20-30.8000N,107-41.5600E,99,26.26,32.399
24519,2011/10/7,12:19:00,20-30.7800N,107-41.7400E,91,26.246,32.4191
24520,2011/10/7,12:20:00,20-30.7700N,107-41.9200E,95,26.235,32.4439
24521,2011/10/7,12:21:00,20-30.7600N,107-42.1000E,95,26.218,32.4569
24522,2011/10/7,12:22:00,20-30.7400N,107-42.2900E,95,26.191,32.4681
24523,2011/10/7,12:23:00,20-30.7200N,107-42.4700E,93,26.18,32.4834
24524,2011/10/7,12:24:00,20-30.7200N,107-42.6600E,91,26.153,32.4992
24525,2011/10/7,12:25:00,20-30.7000N,107-42.8400E,97,26.142,32.5103
24526,2011/10/7,12:26:00,20-30.6900N,107-43.0300E,90,26.125,32.5296
24527,2011/10/7,12:27:00,20-30.6900N,107-43.2200E,91,26.12,32.5426
24528,2011/10/7,12:28:00,20-30.6700N,107-43.4000E,98,26.116,32.5496
24529,2011/10/7,12:29:00,20-30.6500N,107-43.5900E,97,26.119,32.5523
24530,2011/10/7,12:30:00,20-30.6400N,107-43.7800E,88,26.118,32.5502
24531,2011/10/7,12:31:00,20-30.6400N,107-43.9700E,93,26.114,32.5471
24532,2011/10/7,12:32:00,20-30.6200N,107-44.1500E,97,26.108,32.5471
24533,2011/10/7,12:33:00,20-30.5900N,107-44.3400E,95,26.105,32.5507
24534,2011/10/7,12:34:00,20-30.5900N,107-44.5300E,89,26.102,32.5558
24535,2011/10/7,12:35:00,20-30.5800N,107-44.7200E,93,26.099,32.5612
24536,2011/10/7,12:36:00,20-30.5600N,107-44.9100E,94,26.094,32.5647
24537,2011/10/7,12:37:00,20-30.5500N,107-45.1000E,94,26.085,32.5683
24538,2011/10/7,12:38:00,20-30.5300N,107-45.2900E,93,26.076,32.5728
24539,2011/10/7,12:39:00,20-30.5200N,107-45.4800E,91,26.072,32.5797
24540,2011/10/7,12:40:00,20-30.5200N,107-45.6600E,94,26.071,32.5853
24541,2011/10/7,12:41:00,20-30.5000N,107-45.8500E,97,26.069,32.5876
24542,2011/10/7,12:42:00,20-30.4800N,107-46.0400E,91,26.068,32.5871
24543,2011/10/7,12:43:00,20-30.4800N,107-46.2200E,93,26.065,32.5867
24544,2011/10/7,12:44:00,20-30.4600N,107-46.4100E,94,26.061,32.5855
24545,2011/10/7,12:45:00,20-30.4600N,107-46.6000E,89,26.061,32.5887
24546,2011/10/7,12:46:00,20-30.4400N,107-46.7800E,98,26.056,32.5913
24547,2011/10/7,12:47:00,20-30.4200N,107-46.9700E,93,26.052,32.5939
24548,2011/10/7,12:48:00,20-30.4200N,107-47.1500E,92,26.049,32.5976
24549,2011/10/7,12:49:00,20-30.4000N,107-47.3400E,97,26.045,32.6029
24550,2011/10/7,12:50:00,20-30.3800N,107-47.5300E,94,26.047,32.6077
24551,2011/10/7,12:51:00,20-30.3700N,107-47.7200E,95,26.049,32.6105
24552,2011/10/7,12:52:00,20-30.3600N,107-47.9100E,90,26.048,32.6144
24553,2011/10/7,12:53:00,20-30.3600N,107-48.1000E,92,26.046,32.6155
24554,2011/10/7,12:54:00,20-30.3500N,107-48.2900E,93,26.04,32.616
24555,2011/10/7,12:55:00,20-30.3400N,107-48.4800E,93,26.042,32.617
24556,2011/10/7,12:56:00,20-30.3200N,107-48.6700E,94,26.045,32.6184
24557,2011/10/7,12:57:00,20-30.3100N,107-48.8600E,92,26.045,32.6216
24558,2011/10/7,12:58:00,20-30.3100N,107-49.0500E,89,26.048,32.6233
24559,2011/10/7,12:59:00,20-30.3000N,107-49.2500E,94,26.049,32.6226
24560,2011/10/7,13:00:00,20-30.2700N,107-49.4400E,97,26.049,32.6211
24561,2011/10/7,13:01:00,20-30.2700N,107-49.6300E,88,26.052,32.619
24562,2011/10/7,13:02:00,20-30.2600N,107-49.8200E,95,26.052,32.6164
24563,2011/10/7,13:03:00,20-30.2400N,107-50.0100E,97,26.049,32.6148
24564,2011/10/7,13:04:00,20-30.2300N,107-50.2100E,90,26.046,32.6126
24565,2011/10/7,13:05:00,20-30.2300N,107-50.4000E,92,26.046,32.6138
24566,2011/10/7,13:06:00,20-30.2200N,107-50.5900E,94,26.048,32.6158
24567,2011/10/7,13:07:00,20-30.2000N,107-50.7900E,94,26.049,32.6169
24568,2011/10/7,13:08:00,20-30.1900N,107-50.9800E,90,26.05,32.6179
24569,2011/10/7,13:09:00,20-30.1900N,107-51.1800E,90,26.05,32.6189
24570,2011/10/7,13:10:00,20-30.1800N,107-51.3700E,95,26.05,32.6209
24571,2011/10/7,13:11:00,20-30.1600N,107-51.5700E,96,26.045,32.623
24572,2011/10/7,13:12:00,20-30.1500N,107-51.7600E,94,26.041,32.624
24573,2011/10/7,13:13:00,20-30.1400N,107-51.9600E,90,26.037,32.6249
24574,2011/10/7,13:14:00,20-30.1400N,107-52.1500E,91,26.037,32.6232
24575,2011/10/7,13:15:00,20-30.1300N,107-52.3500E,96,26.043,32.6187
24576,2011/10/7,13:16:00,20-30.1000N,107-52.5500E,96,26.062,32.6164
24577,2011/10/7,13:17:00,20-30.0900N,107-52.7400E,92,26.069,32.6158
24578,2011/10/7,13:18:00,20-30.0900N,107-52.9300E,90,26.078,32.6152
24579,2011/10/7,13:19:00,20-30.0800N,107-53.1300E,96,26.086,32.6141
24580,2011/10/7,13:20:00,20-30.0700N,107-53.3200E,91,26.093,32.6129
24581,2011/10/7,13:21:00,20-30.0700N,107-53.5200E,91,26.105,32.6114
24582,2011/10/7,13:22:00,20-30.0600N,107-53.7100E,92,26.118,32.6112
24583,2011/10/7,13:23:00,20-30.0500N,107-53.9000E,96,26.128,32.6093
24584,2011/10/7,13:24:00,20-30.0200N,107-54.1000E,97,26.136,32.6064
24585,2011/10/7,13:25:00,20-30.0200N,107-54.2900E,88,26.14,32.6038
24586,2011/10/7,13:26:00,20-30.0200N,107-54.4800E,93,26.15,32.6027
24587,2011/10/7,13:27:00,20-30.0000N,107-54.6700E,96,26.157,32.6009
24588,2011/10/7,13:28:00,20-29.9800N,107-54.8700E,94,26.162,32.5989
24589,2011/10/7,13:29:00,20-29.9700N,107-55.0600E,90,26.168,32.5985
24590,2011/10/7,13:30:00,20-29.9600N,107-55.2600E,93,26.173,32.5995
24591,2011/10/7,13:31:00,20-29.9500N,107-55.4600E,91,26.176,32.6
24592,2011/10/7,13:32:00,20-29.9400N,107-55.6500E,92,26.182,32.6009
24593,2011/10/7,13:33:00,20-29.9500N,107-55.8400E,88,26.183,32.6027
24594,2011/10/7,13:34:00,20-29.9400N,107-56.0400E,93,26.183,32.6038
24595,2011/10/7,13:35:00,20-29.9200N,107-56.2300E,97,26.185,32.6057
24596,2011/10/7,13:36:00,20-29.9100N,107-56.4300E,90,26.189,32.6073
24597,2011/10/7,13:37:00,20-29.9100N,107-56.6200E,92,26.193,32.608
24598,2011/10/7,13:38:00,20-29.9000N,107-56.8100E,94,26.201,32.6069
24599,2011/10/7,13:39:00,20-29.8800N,107-57.0100E,92,26.214,32.6049
24600,2011/10/7,13:40:00,20-29.8900N,107-57.2000E,89,26.223,32.6014
24601,2011/10/7,13:41:00,20-29.8700N,107-57.3900E,97,26.226,32.598
24602,2011/10/7,13:42:00,20-29.8600N,107-57.5800E,94,26.221,32.5967
24603,2011/10/7,13:43:00,20-29.8400N,107-57.7800E,96,26.215,32.5968
24604,2011/10/7,13:44:00,20-29.8200N,107-57.9700E,98,26.199,32.6027
24605,2011/10/7,13:45:00,20-29.7900N,107-58.1700E,95,26.176,32.6128
24606,2011/10/7,13:46:00,20-29.7700N,107-58.3600E,96,26.151,32.6226
24607,2011/10/7,13:47:00,20-29.7500N,107-58.5600E,99,26.127,32.6324
24608,2011/10/7,13:48:00,20-29.7300N,107-58.7600E,91,26.109,32.644
24609,2011/10/7,13:49:00,20-29.7200N,107-58.9500E,96,26.083,32.6554
24610,2011/10/7,13:50:00,20-29.7000N,107-59.1500E,99,26.069,32.6682
24611,2011/10/7,13:51:00,20-29.6700N,107-59.3400E,96,26.062,32.6804
24612,2011/10/7,13:52:00,20-29.6600N,107-59.5300E,93,26.067,32.6879
24613,2011/10/7,13:53:00,20-29.6400N,107-59.7300E,97,26.064,32.6929
24614,2011/10/7,13:54:00,20-29.6100N,107-59.9200E,100,26.063,32.6954
24615,2011/10/7,13:55:00,20-29.5800N,108-00.1200E,97,26.057,32.697
24616,2011/10/7,13:56:00,20-29.5700N,108-00.3000E,91,26.051,32.6966
24617,2011/10/7,13:57:00,20-29.5500N,108-00.4900E,99,26.043,32.6969
24618,2011/10/7,13:58:00,20-29.5200N,108-00.6800E,99,26.039,32.6972
24619,2011/10/7,13:59:00,20-29.4900N,108-00.8700E,95,26.04,32.6986
24620,2011/10/7,14:00:00,20-29.4800N,108-01.0600E,96,26.045,32.6989
24621,2011/10/7,14:01:00,20-29.4600N,108-01.2500E,97,26.046,32.6998
24622,2011/10/7,14:02:00,20-29.4300N,108-01.4500E,100,26.026,32.7006
24623,2011/10/7,14:03:00,20-29.4100N,108-01.6400E,95,25.992,32.7023
24624,2011/10/7,14:04:00,20-29.3800N,108-01.8300E,100,25.959,32.7056
24625,2011/10/7,14:05:00,20-29.3500N,108-02.0200E,95,25.947,32.7086
24626,2011/10/7,14:06:00,20-29.3300N,108-02.2200E,99,25.941,32.7105
24627,2011/10/7,14:07:00,20-29.3100N,108-02.4100E,99,25.934,32.7113
24628,2011/10/7,14:08:00,20-29.2800N,108-02.6000E,101,25.934,32.7135
24629,2011/10/7,14:09:00,20-29.2500N,108-02.7900E,97,25.928,32.7176
24630,2011/10/7,14:10:00,20-29.2200N,108-02.9800E,102,25.915,32.721
24631,2011/10/7,14:11:00,20-29.1800N,108-03.1700E,98,25.89,32.7239
24632,2011/10/7,14:12:00,20-29.1700N,108-03.3700E,96,25.861,32.7253
24633,2011/10/7,14:13:00,20-29.1400N,108-03.5600E,101,25.827,32.7271
24634,2011/10/7,14:14:00,20-29.1000N,108-03.7500E,103,25.791,32.7324
24635,2011/10/7,14:15:00,20-29.0700N,108-03.9400E,98,25.754,32.7396
24636,2011/10/7,14:16:00,20-29.0500N,108-04.1300E,95,25.72,32.7476
24637,2011/10/7,14:17:00,20-29.0200N,108-04.3300E,101,25.689,32.7568
24638,2011/10/7,14:18:00,20-28.9800N,108-04.5200E,101,25.662,32.7664
24639,2011/10/7,14:19:00,20-28.9500N,108-04.7100E,95,25.636,32.7739
24640,2011/10/7,14:20:00,20-28.9400N,108-04.9000E,95,25.611,32.7809
24641,2011/10/7,14:21:00,20-28.9000N,108-05.0900E,105,25.588,32.7882
24642,2011/10/7,14:22:00,20-28.8600N,108-05.2900E,102,25.568,32.7963
24643,2011/10/7,14:23:00,20-28.8300N,108-05.4800E,97,25.555,32.8038
24644,2011/10/7,14:24:00,20-28.8000N,108-05.6700E,100,25.543,32.8096
24645,2011/10/7,14:25:00,20-28.7800N,108-05.8700E,95,25.532,32.8133
24646,2011/10/7,14:26:00,20-28.7600N,108-06.0600E,98,25.513,32.816
24647,2011/10/7,14:27:00,20-28.7300N,108-06.2600E,101,25.491,32.8196
24648,2011/10/7,14:28:00,20-28.7000N,108-06.4500E,99,25.469,32.8233
24649,2011/10/7,14:29:00,20-28.6600N,108-06.6500E,101,25.436,32.8277
24650,2011/10/7,14:30:00,20-28.6300N,108-06.8500E,96,25.399,32.8315
24651,2011/10/7,14:31:00,20-28.6100N,108-07.0400E,98,25.381,32.8386
24652,2011/10/7,14:32:00,20-28.5800N,108-07.2400E,100,25.362,32.8452
24653,2011/10/7,14:33:00,20-28.5500N,108-07.4300E,99,25.344,32.8493
24654,2011/10/7,14:34:00,20-28.5200N,108-07.6300E,99,25.331,32.8528
24655,2011/10/7,14:35:00,20-28.5000N,108-07.8200E,94,25.312,32.8568
24656,2011/10/7,14:36:00,20-28.4800N,108-08.0200E,97,25.28,32.8593
24657,2011/10/7,14:37:00,20-28.4400N,108-08.2100E,102,25.263,32.8632
24658,2011/10/7,14:38:00,20-28.4000N,108-08.4100E,100,25.256,32.8685
24659,2011/10/7,14:39:00,20-28.3800N,108-08.6000E,93,25.254,32.8723
24660,2011/10/7,14:40:00,20-28.3600N,108-08.8000E,97,25.25,32.8745
24661,2011/10/7,14:41:00,20-28.3300N,108-09.0000E,98,25.244,32.8754
24662,2011/10/7,14:42:00,20-28.3100N,108-09.2000E,99,25.237,32.8765
24663,2011/10/7,14:43:00,20-28.2700N,108-09.3900E,101,25.235,32.8764
24664,2011/10/7,14:44:00,20-28.2500N,108-09.5800E,94,25.236,32.8767
24665,2011/10/7,14:45:00,20-28.2200N,108-09.7800E,98,25.236,32.8754
24666,2011/10/7,14:46:00,20-28.2000N,108-09.9700E,99,25.229,32.8746
24667,2011/10/7,14:47:00,20-28.1800N,108-10.1700E,99,25.228,32.8744
24668,2011/10/7,14:48:00,20-28.1400N,108-10.3600E,104,25.225,32.8755
24669,2011/10/7,14:49:00,20-28.1100N,108-10.5400E,94,25.225,32.8762
24670,2011/10/7,14:50:00,20-28.1000N,108-10.7400E,95,25.218,32.8768
24671,2011/10/7,14:51:00,20-28.0800N,108-10.9300E,97,25.208,32.8776
24672,2011/10/7,14:52:00,20-28.0600N,108-11.1200E,96,25.2,32.8786
24673,2011/10/7,14:53:00,20-28.0500N,108-11.3100E,89,25.18,32.8802
24674,2011/10/7,14:54:00,20-28.0500N,108-11.5100E,92,25.165,32.8816
24675,2011/10/7,14:55:00,20-28.0400N,108-11.7000E,95,25.152,32.8844
24676,2011/10/7,14:56:00,20-28.0100N,108-11.9000E,97,25.122,32.8857
24677,2011/10/7,14:57:00,20-28.0000N,108-12.0900E,94,25.096,32.8867
24678,2011/10/7,14:58:00,20-28.0000N,108-12.2900E,89,25.085,32.8912
24679,2011/10/7,14:59:00,20-27.9900N,108-12.4800E,90,25.078,32.8951
24680,2011/10/7,15:00:00,20-27.9800N,108-12.6800E,95,25.078,32.8976
24681,2011/10/7,15:01:00,20-27.9700N,108-12.8700E,92,25.077,32.899
24682,2011/10/7,15:02:00,20-27.9600N,108-13.0700E,94,25.083,32.8993
24683,2011/10/7,15:03:00,20-27.9400N,108-13.2700E,95,25.099,32.8988
24684,2011/10/7,15:04:00,20-27.9300N,108-13.4600E,89,25.111,32.8965
24685,2011/10/7,15:05:00,20-27.9300N,108-13.6500E,91,25.112,32.8922
24686,2011/10/7,15:06:00,20-27.9200N,108-13.8500E,95,25.111,32.8904
24687,2011/10/7,15:07:00,20-27.9000N,108-14.0400E,97,25.106,32.8899
24688,2011/10/7,15:08:00,20-27.8800N,108-14.2400E,92,25.102,32.8899
24689,2011/10/7,15:09:00,20-27.8800N,108-14.4300E,91,25.096,32.8901
24690,2011/10/7,15:10:00,20-27.8700N,108-14.6300E,92,25.084,32.8911
24691,2011/10/7,15:11:00,20-27.8600N,108-14.8300E,93,25.073,32.8925
24692,2011/10/7,15:12:00,20-27.8400N,108-15.0300E,96,25.062,32.8948
24693,2011/10/7,15:13:00,20-27.8200N,108-15.2300E,94,25.043,32.898
24694,2011/10/7,15:14:00,20-27.8000N,108-15.4300E,98,25.021,32.9017
24695,2011/10/7,15:15:00,20-27.7800N,108-15.6300E,93,24.996,32.9064
24696,2011/10/7,15:16:00,20-27.7700N,108-15.8300E,96,24.978,32.9131
24697,2011/10/7,15:17:00,20-27.7500N,108-16.0300E,96,24.956,32.9181
24698,2011/10/7,15:18:00,20-27.7200N,108-16.2300E,96,24.935,32.924
24699,2011/10/7,15:19:00,20-27.7100N,108-16.4300E,92,24.913,32.93
24700,2011/10/7,15:20:00,20-27.7000N,108-16.6400E,94,24.899,32.9358
24701,2011/10/7,15:21:00,20-27.6900N,108-16.8400E,95,24.877,32.9424
24702,2011/10/7,15:22:00,20-27.6700N,108-17.0400E,95,24.841,32.9483
24703,2011/10/7,15:23:00,20-27.6400N,108-17.2500E,98,24.825,32.9573
24704,2011/10/7,15:24:00,20-27.6100N,108-17.4500E,96,24.816,32.9656
24705,2011/10/7,15:25:00,20-27.5900N,108-17.6600E,97,24.812,32.9705
24706,2011/10/7,15:26:00,20-27.5600N,108-17.8700E,98,24.799,32.9734
24707,2011/10/7,15:27:00,20-27.5500N,108-18.0800E,93,24.79,32.9759
24708,2011/10/7,15:28:00,20-27.5300N,108-18.2800E,96,24.786,32.9779
24709,2011/10/7,15:29:00,20-27.5100N,108-18.4900E,96,24.778,32.9794
24710,2011/10/7,15:30:00,20-27.4800N,108-18.7000E,100,24.764,32.9799
24711,2011/10/7,15:31:00,20-27.4500N,108-18.9000E,97,24.748,32.9795
24712,2011/10/7,15:32:00,20-27.4400N,108-19.1100E,94,24.737,32.9784
24713,2011/10/7,15:33:00,20-27.4200N,108-19.3200E,95,24.73,32.9771
24714,2011/10/7,15:34:00,20-27.4000N,108-19.5300E,97,24.716,32.9762
24715,2011/10/7,15:35:00,20-27.3700N,108-19.7300E,97,24.692,32.9759
24716,2011/10/7,15:36:00,20-27.3500N,108-19.9400E,95,24.664,32.9752
24717,2011/10/7,15:37:00,20-27.3300N,108-20.1500E,95,24.641,32.9752
24718,2011/10/7,15:38:00,20-27.3000N,108-20.3500E,97,24.626,32.9769
24719,2011/10/7,15:39:00,20-27.2700N,108-20.5600E,97,24.616,32.9782
24720,2011/10/7,15:40:00,20-27.2600N,108-20.7600E,93,24.614,32.98
24721,2011/10/7,15:41:00,20-27.2400N,108-20.9700E,96,24.613,32.9818
24722,2011/10/7,15:42:00,20-27.2100N,108-21.1700E,100,24.604,32.9833
24723,2011/10/7,15:43:00,20-27.1900N,108-21.3700E,98,24.589,32.9851
24724,2011/10/7,15:44:00,20-27.1600N,108-21.5800E,95,24.56,32.9882
24725,2011/10/7,15:45:00,20-27.1500N,108-21.7800E,95,24.528,32.9916
24726,2011/10/7,15:46:00,20-27.1300N,108-21.9900E,97,24.506,32.9936
24727,2011/10/7,15:47:00,20-27.1000N,108-22.1900E,97,24.527,32.9943
24728,2011/10/7,15:48:00,20-27.0800N,108-22.3900E,98,24.53,32.9911
24729,2011/10/7,15:49:00,20-27.0600N,108-22.5900E,94,24.527,32.97
24730,2011/10/7,15:50:00,20-27.0400N,108-22.7900E,98,24.516,32.9615
24731,2011/10/7,15:51:00,20-27.0100N,108-22.9900E,97,24.515,32.9617
24732,2011/10/7,15:52:00,20-27.0000N,108-23.1900E,94,24.521,32.9648
24733,2011/10/7,15:53:00,20-26.9800N,108-23.3900E,94,24.525,32.9652
24734,2011/10/7,15:54:00,20-26.9700N,108-23.6000E,96,24.526,32.9625
24735,2011/10/7,15:55:00,20-26.9400N,108-23.8000E,96,24.55,32.9612
24736,2011/10/7,15:56:00,20-26.9200N,108-24.0000E,97,24.596,32.9617
24737,2011/10/7,15:57:00,20-26.8900N,108-24.1900E,99,24.622,32.946
24738,2011/10/7,15:58:00,20-26.8600N,108-24.3900E,96,24.64,32.9267
24739,2011/10/7,15:59:00,20-26.8500N,108-24.5900E,93,24.647,32.9149
24740,2011/10/7,16:00:00,20-26.8200N,108-24.7900E,100,24.648,32.9066
24741,2011/10/7,16:01:00,20-26.8000N,108-24.9900E,97,24.649,32.904
24742,2011/10/7,16:02:00,20-26.7800N,108-25.1700E,95,24.655,32.904
24743,2011/10/7,16:03:00,20-26.7600N,108-25.3700E,98,24.662,32.9034
24744,2011/10/7,16:04:00,20-26.7300N,108-25.5600E,98,24.675,32.9015
24745,2011/10/7,16:05:00,20-26.7000N,108-25.7500E,100,24.683,32.8966
24746,2011/10/7,16:06:00,20-26.6800N,108-25.9500E,94,24.689,32.8915
24747,2011/10/7,16:07:00,20-26.6600N,108-26.1500E,96,24.695,32.8878
24748,2011/10/7,16:08:00,20-26.6500N,108-26.3500E,95,24.7,32.8849
24749,2011/10/7,16:09:00,20-26.6200N,108-26.5500E,99,24.706,32.8832
24750,2011/10/7,16:10:00,20-26.5900N,108-26.7500E,99,24.71,32.8815
24751,2011/10/7,16:11:00,20-26.5600N,108-26.9500E,99,24.713,32.8802
24752,2011/10/7,16:12:00,20-26.5400N,108-27.1400E,93,24.719,32.8791
24753,2011/10/7,16:13:00,20-26.5200N,108-27.3500E,95,24.723,32.8771
24754,2011/10/7,16:14:00,20-26.5000N,108-27.5500E,97,24.726,32.8769
24755,2011/10/7,16:15:00,20-26.4700N,108-27.7500E,99,24.734,32.8759
24756,2011/10/7,16:16:00,20-26.4400N,108-27.9500E,95,24.737,32.8742
24757,2011/10/7,16:17:00,20-26.4300N,108-28.1500E,96,24.741,32.8726
24758,2011/10/7,16:18:00,20-26.4000N,108-28.3500E,98,24.745,32.8713
24759,2011/10/7,16:19:00,20-26.3700N,108-28.5500E,97,24.749,32.8704
24760,2011/10/7,16:20:00,20-26.3600N,108-28.7500E,94,24.755,32.8699
24761,2011/10/7,16:21:00,20-26.3400N,108-28.9500E,97,24.759,32.8691
24762,2011/10/7,16:22:00,20-26.3100N,108-29.1400E,98,24.764,32.8683
24763,2011/10/7,16:23:00,20-26.2900N,108-29.3400E,97,24.772,32.8669
24764,2011/10/7,16:24:00,20-26.2600N,108-29.5400E,96,24.778,32.8648
24765,2011/10/7,16:25:00,20-26.2400N,108-29.7400E,100,24.781,32.8634
24766,2011/10/7,16:26:00,20-26.2100N,108-29.9400E,96,24.788,32.8617
24767,2011/10/7,16:27:00,20-26.1900N,108-30.1400E,95,24.794,32.8611
24768,2011/10/7,16:28:00,20-26.1800N,108-30.3400E,96,24.8,32.8594
24769,2011/10/7,16:29:00,20-26.1500N,108-30.5300E,100,24.804,32.8583
24770,2011/10/7,16:30:00,20-26.1200N,108-30.7300E,94,24.81,32.857
24771,2011/10/7,16:31:00,20-26.1100N,108-30.9300E,95,24.819,32.8559
24772,2011/10/7,16:32:00,20-26.0900N,108-31.1200E,97,24.846,32.8544
24773,2011/10/7,16:33:00,20-26.0600N,108-31.3200E,99,24.857,32.8504
24774,2011/10/7,16:34:00,20-26.0300N,108-31.5100E,96,24.881,32.8424
24775,2011/10/7,16:35:00,20-26.0200N,108-31.7300E,92,24.898,32.8355
24776,2011/10/7,16:36:00,20-26.0000N,108-31.9300E,97,24.911,32.8297
24777,2011/10/7,16:37:00,20-25.9800N,108-32.1100E,99,24.918,32.8251
24778,2011/10/7,16:38:00,20-25.9400N,108-32.3000E,99,24.921,32.8191
24779,2011/10/7,16:39:00,20-25.9100N,108-32.5000E,99,24.925,32.818
24780,2011/10/7,16:40:00,20-25.9000N,108-32.7000E,92,24.928,32.8174
24781,2011/10/7,16:41:00,20-25.8900N,108-32.9000E,93,24.931,32.815
24782,2011/10/7,16:42:00,20-25.8700N,108-33.1000E,95,24.941,32.8143
24783,2011/10/7,16:43:00,20-25.8400N,108-33.3000E,99,24.95,32.8125
24784,2011/10/7,16:44:00,20-25.8200N,108-33.5000E,95,24.958,32.8093
24785,2011/10/7,16:45:00,20-25.7900N,108-33.6900E,98,24.967,32.8066
24786,2011/10/7,16:46:00,20-25.7700N,108-33.8900E,94,24.978,32.8037
24787,2011/10/7,16:47:00,20-25.7500N,108-34.0900E,97,24.988,32.801
24788,2011/10/7,16:48:00,20-25.7200N,108-34.2900E,98,24.996,32.7985
24789,2011/10/7,16:49:00,20-25.7100N,108-34.4900E,95,25.003,32.7961
24790,2011/10/7,16:50:00,20-25.6800N,108-34.6900E,98,25.013,32.7949
24791,2011/10/7,16:51:00,20-25.6500N,108-34.8900E,97,25.028,32.7936
24792,2011/10/7,16:52:00,20-25.6400N,108-35.0900E,93,25.046,32.7914
24793,2011/10/7,16:53:00,20-25.6200N,108-35.2900E,97,25.074,32.7887
24794,2011/10/7,16:54:00,20-25.5900N,108-35.4900E,98,25.097,32.7851
24795,2011/10/7,16:55:00,20-25.5700N,108-35.6900E,97,25.112,32.7791
24796,2011/10/7,16:56:00,20-25.5500N,108-35.8900E,93,25.13,32.7746
24797,2011/10/7,16:57:00,20-25.5300N,108-36.0900E,95,25.148,32.7715
24798,2011/10/7,16:58:00,20-25.5100N,108-36.2900E,98,25.171,32.7663
24799,2011/10/7,16:59:00,20-25.4900N,108-36.4900E,94,25.191,32.7614
24800,2011/10/7,17:00:00,20-25.4700N,108-36.6900E,96,25.211,32.7539
24801,2011/10/7,17:01:00,20-25.4500N,108-36.8900E,97,25.224,32.7481
24802,2011/10/7,17:02:00,20-25.4200N,108-37.0900E,97,25.234,32.7435